Content
SEND FEEDBACK

Mexico Flag

MORELIA, MICHOACAN


Home > North America > Mexico > Michoacan
Elevation: 6275 feet     Latitude: 19 42N     Longitude: 101 11W

WEATHER
 
SELECT A DAY
Number of Records: 167,776;   Date Range: 1/1/95 - 3/22/16
 
SHARE

PRINT THIS DATA

[ ← Previous Day ]
WEATHER ALMANAC - JANUARY 10, 2013
[ Next Day → ]
[ °C ]   °F
Weather ElementAverageHighLow
Temperature59.9 °F83 °F (2:50 pm)39.2 °F (6:43 am)
Dewpoint45.5 °F59 °F (10:30 am)37.4 °F (6:43 am)
Humidity63 %100 % (3:59 am)15 % (2:50 pm)
Barometer30.13 in30.31 in (9:32 am)29.80 in (5:50 pm)
Wind Speed2.9 mph11.5 mph (2:45 pm)
Weather ElementAverage
Visibility7.4 mi
Wind DirectionENE (82.6 °)

Weather ElementTotal
Precipitation---
Heating Degree Days3.9 (Base 65)
Growing Degree Days11.1 (Base 50)
Averaged from 38 records on January 10, 2013
WEATHER CONDITIONS BREAKOUT
WIND DIRECTION BREAKOUT
WEATHER BY HOUR - JANUARY 10, 2013
[ °C ]   °F
Local TimeTemperatureDewpointHumidityBarometerVisibilityWind DirectionWind SpeedGust SpeedPrecipitationEventsConditions
1:54 AM42.8 °F41.0 °F93 %30.25 in7.0 miCalmClear
2:40 AM42.8 °F41.0 °F93 %29.97 in7.0 miCalmClear
2:50 AM50.0 °F47.0 °F85 %29.97 in5.0 miSouth (180°)2.2 mph
3:59 AM41.0 °F41.0 °F100 %30.24 in7.0 miCalmClear
4:43 AM41.0 °F39.2 °F93 %30.24 in7.0 miCalmClear
5:50 AM46.0 °F44.0 °F91 %30.03 in5.0 miSSW (210°)2.2 mph
6:43 AM39.2 °F37.4 °F93 %30.25 in7.0 miCalmClear
7:48 AM41.0 °F39.2 °F93 %30.27 in8.0 miCalmClear
8:21 AM44.6 °F42.8 °F93 %30.28 in8.0 miCalmClear
8:42 AM48.2 °F44.6 °F87 %30.02 in8.0 miCalmClear
8:45 AM49.0 °F44.0 °F75 %30.12 in6.0 miSW (220°)6.7 mph
9:01 AM51.8 °F46.4 °F82 %30.30 in8.0 miCalmClear
9:32 AM55.4 °F46.4 °F72 %30.31 in8.0 miVariable3.5 mphClear
9:42 AM55.4 °F46.4 °F72 %30.31 in8.0 miCalmClear
10:11 AM59.0 °F46.4 °F63 %30.31 in8.0 miCalmClear
10:30 AM62.6 °F59.0 °F88 %30.31 in8.0 miCalmClear
10:42 AM64.4 °F48.2 °F56 %30.30 in8.0 miCalmClear
11:33 AM68.0 °F48.2 °F49 %30.27 in8.0 miCalmClear
11:44 AM68.0 °F48.2 °F49 %29.94 in8.0 miNNE (30°)4.6 mphClear
11:45 AM74.0 °F52.0 °F35 %30.04 in7.0 miSSW (210°)6.7 mph
12:12 PM71.6 °F48.2 °F43 %30.25 in8.0 miVariable3.5 mphClear
12:38 PM75.2 °F46.4 °F36 %30.23 in8.0 miEast (90°)4.6 mphClear
12:45 PM77.0 °F46.4 °F34 %30.22 in8.0 miESE (120°)4.6 mphClear
1:43 PM78.8 °F41.0 °F26 %30.20 in8.0 miSouth (170°)9.2 mphClear
2:45 PM77.0 °F42.8 °F29 %29.83 in8.0 miESE (110°)11.5 mphScattered Clouds
2:50 PM83.0 °F43.0 °F15 %29.87 in9.0 miSSW (210°)4.5 mphPartly Cloudy
3:40 PM78.8 °F44.6 °F30 %30.17 in8.0 miSouth (170°)11.5 mphScattered Clouds
4:44 PM77.0 °F42.8 °F29 %30.18 in8.0 miSSE (160°)11.5 mphScattered Clouds
5:42 PM73.4 °F46.4 °F38 %29.89 in7.0 miSouth (190°)6.9 mphScattered Clouds
5:50 PM72.0 °F48.0 °F32 %29.80 in9.0 miSouth (180°)4.5 mphPartly Cloudy
6:44 PM66.2 °F46.4 °F49 %30.19 in7.0 miSouth (170°)4.6 mphClear
7:52 PM62.6 °F46.4 °F55 %30.22 in8.0 miCalmClear
8:43 PM62.6 °F46.4 °F55 %29.91 in8.0 miWSW (240°)4.6 mphClear
8:50 PM62.0 °F54.0 °F67 %29.89 in5.0 miWest (270°)2.2 mph
9:45 PM57.2 °F46.4 °F67 %30.24 in7.0 miCalmClear
11:06 PM51.8 °F44.6 °F76 %30.26 in7.0 miCalmClear
11:45 PM50.0 °F42.8 °F76 %29.94 in7.0 miCalmClear
11:50 PM56.0 °F51.0 °F76 %29.84 in5.0 miSSW (210°)2.2 mph
Hourly data recorded from MMMM, located miles away from Morelia, Michoacan




STORIES FROM OUR PARTNERS